| time (UTC) | temp F | wind direction | speed knots | gust knots | rain 1hr in | rain 24hr in | rain mn in | humidity % | barometer mb |
| 20260503013031 | 81 | 182 | 0.0 | 0.0 | 0.00 | 0.00 | 0.00 | 79 | 1013.0 |
| 20260503011518 | 82 | 182 | 0.0 | 0.0 | 0.00 | 0.00 | 0.00 | 78 | 1012.9 |
| 20260503010019 | 82 | 182 | 0.0 | 0.0 | 0.00 | 0.00 | 0.00 | 78 | 1012.8 |
| 20260503004516 | 82 | 182 | 0.0 | 0.0 | 0.00 | 0.00 | 0.00 | 77 | 1012.6 |
| 20260503003016 | 82 | 182 | 0.0 | 0.9 | 0.00 | 0.00 | 0.00 | 77 | 1012.4 |
| 20260503001516 | 83 | 182 | 0.0 | 0.9 | 0.00 | 0.00 | 0.00 | 76 | 1012.2 |
| 20260503000014 | 83 | 182 | 0.0 | 0.9 | 0.00 | 0.00 | 0.00 | 75 | 1012.1 |
| 20260502234514 | 83 | 198 | 0.0 | 0.9 | 0.00 | 0.00 | 0.00 | 74 | 1011.9 |
| 20260502233015 | 84 | 177 | 0.0 | 3.5 | 0.00 | 0.00 | 0.00 | 73 | 1011.7 |
| 20260502231518 | 85 | 221 | 0.9 | 2.6 | 0.00 | 0.00 | 0.00 | 72 | 1011.4 |
| 20260502230013 | 87 | 220 | 0.9 | 3.5 | 0.00 | 0.00 | 0.00 | 70 | 1011.2 |
| 20260502224512 | 86 | 19 | 0.0 | 3.5 | 0.00 | 0.00 | 0.00 | 71 | 1011.1 |
| 20260502223012 | 86 | 221 | 1.7 | 4.3 | 0.00 | 0.00 | 0.00 | 70 | 1011.0 |
| 20260502221511 | 87 | 181 | 0.9 | 2.6 | 0.00 | 0.00 | 0.00 | 70 | 1010.9 |
| 20260502220010 | 86 | 244 | 0.0 | 2.6 | 0.00 | 0.00 | 0.00 | 71 | 1010.9 |
| 20260502214510 | 86 | 230 | 1.7 | 4.3 | 0.00 | 0.00 | 0.00 | 69 | 1011.0 |
| 20260502213010 | 86 | 197 | 0.0 | 4.3 | 0.00 | 0.00 | 0.00 | 69 | 1010.7 |
| 20260502211509 | 87 | 233 | 2.6 | 5.2 | 0.00 | 0.00 | 0.00 | 70 | 1010.6 |
| 20260502210007 | 87 | 200 | 1.7 | 4.3 | 0.00 | 0.00 | 0.00 | 69 | 1010.5 |
| 20260502204504 | 86 | 240 | 0.9 | 6.1 | 0.00 | 0.00 | 0.00 | 72 | 1010.8 |
| 20260502203003 | 85 | 240 | 3.5 | 7.8 | 0.00 | 0.00 | 0.00 | 71 | 1011.0 |
| 20260502201503 | 85 | 194 | 2.6 | 7.8 | 0.00 | 0.00 | 0.00 | 70 | 1011.2 |
| 20260502200101 | 84 | 256 | 4.3 | 9.6 | 0.00 | 0.00 | 0.00 | 72 | 1011.2 |
| 20260502194502 | 85 | 233 | 5.2 | 10.4 | 0.00 | 0.00 | 0.00 | 72 | 1011.4 |
| 20260502193111 | 84 | 245 | 5.2 | 7.8 | 0.00 | 0.00 | 0.00 | 69 | 1011.6 |
| 20260502191609 | 84 | 247 | 5.2 | 8.7 | 0.00 | 0.00 | 0.00 | 77 | 1011.8 |
| 20260502190059 | 84 | 243 | 4.3 | 8.7 | 0.00 | 0.00 | 0.00 | 74 | 1011.9 |
| 20260502184608 | 84 | 245 | 2.6 | 10.4 | 0.00 | 0.00 | 0.00 | 72 | 1012.0 |
| 20260502183057 | 84 | 238 | 4.3 | 8.7 | 0.00 | 0.00 | 0.00 | 76 | 1012.0 |
| 20260502181558 | 83 | 244 | 6.1 | 9.6 | 0.00 | 0.00 | 0.00 | 74 | 1012.0 |
| 20260502163053 | 85 | 265 | 2.6 | 8.7 | 0.00 | 0.00 | 0.00 | 75 | 1012.3 |
| 20260502161614 | 85 | 193 | 1.7 | 6.1 | 0.00 | 0.00 | 0.00 | 76 | 1012.4 |
| 20260502160113 | 85 | 242 | 2.6 | 7.0 | 0.00 | 0.00 | 0.00 | 76 | 1012.4 |
| 20260502151549 | 84 | 167 | 2.6 | 6.1 | 0.00 | 0.00 | 0.00 | 77 | 1012.4 |
| 20260502123106 | 82 | 195 | 2.6 | 7.8 | 0.00 | 0.00 | 0.00 | 78 | 1011.5 |
| 20260502121530 | 81 | 197 | 2.6 | 6.1 | 0.00 | 0.00 | 0.00 | 79 | 1011.7 |
| 20260502114525 | 80 | 177 | 0.9 | 11.3 | 0.00 | 0.00 | 0.00 | 83 | 1011.5 |
| 20260502113024 | 80 | 261 | 1.7 | 6.1 | 0.00 | 0.00 | 0.00 | 84 | 1011.4 |
| 20260502111528 | 80 | 166 | 1.7 | 6.1 | 0.00 | 0.00 | 0.00 | 84 | 1011.5 |
| 20260502110025 | 80 | 173 | 2.6 | 6.1 | 0.00 | 0.00 | 0.00 | 83 | 1011.5 |
| 20260502104522 | 80 | 207 | 1.7 | 6.1 | 0.00 | 0.00 | 0.00 | 82 | 1011.2 |
| 20260502103023 | 80 | 219 | 2.6 | 6.1 | 0.00 | 0.00 | 0.00 | 81 | 1011.1 |
| 20260502101519 | 80 | 237 | 2.6 | 5.2 | 0.00 | 0.00 | 0.00 | 81 | 1011.0 |
| 20260502091516 | 80 | 211 | 1.7 | 5.2 | 0.00 | 0.00 | 0.00 | 81 | 1011.1 |
| 20260502071510 | 80 | 113 | 1.7 | 4.3 | 0.00 | 0.00 | 0.00 | 82 | 1011.3 |
| 20260502070008 | 80 | 188 | 1.7 | 6.1 | 0.00 | 0.00 | 0.00 | 82 | 1011.3 |
| 20260502064507 | 80 | 226 | 1.7 | 6.1 | 0.00 | 0.00 | 0.00 | 82 | 1011.2 |
| 20260502063008 | 80 | 175 | 1.7 | 7.0 | 0.00 | 0.00 | 0.00 | 82 | 1011.2 |
| 20260502061505 | 80 | 211 | 2.6 | 6.1 | 0.00 | 0.00 | 0.00 | 82 | 1011.2 |
| 20260502060006 | 80 | 169 | 2.6 | 6.1 | 0.00 | 0.00 | 0.00 | 82 | 1011.3 |
| 20260502054505 | 80 | 226 | 1.7 | 6.1 | 0.00 | 0.00 | 0.00 | 83 | 1011.4 |
| 20260502053003 | 80 | 230 | 1.7 | 5.2 | 0.00 | 0.00 | 0.00 | 83 | 1011.7 |
| 20260502051602 | 80 | 167 | 1.7 | 4.3 | 0.00 | 0.00 | 0.00 | 82 | 1011.9 |
| 20260502050100 | 80 | 234 | 1.7 | 4.3 | 0.00 | 0.00 | 0.00 | 82 | 1012.0 |
| 20260502044558 | 80 | 203 | 1.7 | 4.3 | 0.00 | 0.00 | 0.00 | 81 | 1012.1 |
| 20260502043112 | 80 | 219 | 0.0 | 4.3 | 0.00 | 0.00 | 0.00 | 81 | 1012.2 |
| 20260502041557 | 80 | 148 | 0.9 | 4.3 | 0.00 | 0.00 | 0.00 | 81 | 1012.2 |
| 20260502040104 | 80 | 220 | 0.9 | 3.5 | 0.00 | 0.00 | 0.00 | 82 | 1012.2 |
| 20260502034602 | 80 | 171 | 0.9 | 5.2 | 0.00 | 0.00 | 0.00 | 82 | 1012.1 |
| 20260502033053 | 80 | 177 | 0.9 | 3.5 | 0.00 | 0.00 | 0.00 | 82 | 1011.9 |
| 20260502031552 | 80 | 225 | 0.9 | 3.5 | 0.00 | 0.00 | 0.00 | 81 | 1012.0 |
| 20260502030051 | 80 | 188 | 0.9 | 3.5 | 0.00 | 0.00 | 0.00 | 81 | 1012.0 |
| 20260502024608 | 80 | 223 | 0.0 | 2.6 | 0.00 | 0.00 | 0.00 | 80 | 1011.9 |
| 20260502023051 | 80 | 200 | 0.0 | 3.5 | 0.00 | 0.00 | 0.00 | 79 | 1011.8 |
| 20260502021555 | 80 | 231 | 0.0 | 1.7 | 0.00 | 0.00 | 0.00 | 79 | 1011.5 |
| 20260502020051 | 80 | 190 | 0.0 | 2.6 | 0.00 | 0.00 | 0.00 | 78 | 1011.5 |
| 20260502014550 | 80 | 204 | 0.0 | 0.0 | 0.00 | 0.00 | 0.00 | 78 | 1011.4 |